When you browse on this site, cookies collect data to enhance your experience and personalize the content and advertising you see.
Visit our Privacy Policy to learn more. By continuing to use the site, you agree to this use of cookies and data.

Hourly Weather Korosten

Today, 13 August, Thursday

Time Temperature Precipitation Wind Pressure Humidity
00:00 +13°C° 0 mm 1 mps 748 mmHg 85%
01:00 +12°C° 0 mm 1 mps 748 mmHg 85%
02:00 +12°C° 0 mm 1 mps 748 mmHg 83%
03:00 +12°C° 0 mm 1 mps 748 mmHg 84%
04:00 +12°C° 0 mm 1 mps 748 mmHg 85%
05:00 +12°C° 0 mm 1 mps 748 mmHg 86%
06:00 +13°C° 0 mm 1 mps 748 mmHg 82%
07:00 +15°C° 0 mm 2 mps 748 mmHg 79%
08:00 +16°C° 0 mm 2 mps 748 mmHg 74%
09:00 +17°C° 0.1 mm 2 mps 748 mmHg 68%
10:00 +18°C° 0.1 mm 2 mps 748 mmHg 62%
11:00 +20°C° 0.1 mm 2 mps 748 mmHg 55%
12:00 +20°C° 0 mm 2 mps 747 mmHg 53%
13:00 +21°C° 0 mm 2 mps 747 mmHg 52%
14:00 +21°C° 0 mm 2 mps 747 mmHg 50%
15:00 +21°C° 0 mm 2 mps 747 mmHg 51%
16:00 +21°C° 0 mm 2 mps 747 mmHg 52%
17:00 +21°C° 0 mm 2 mps 747 mmHg 53%
18:00 +19°C° 0 mm 2 mps 747 mmHg 60%
19:00 +17°C° 0 mm 2 mps 747 mmHg 66%
20:00 +15°C° 0 mm 2 mps 747 mmHg 73%
21:00 +14°C° 0 mm 2 mps 747 mmHg 75%
22:00 +14°C° 0 mm 2 mps 747 mmHg 78%
23:00 +13°C° 0 mm 1 mps 747 mmHg 80%

Tomorrow, 14 August, Friday

Time Temperature Precipitation Wind Pressure Humidity
00:00 +13°C° 0 mm 1 mps 747 mmHg 81%
01:00 +12°C° 0 mm 1 mps 747 mmHg 83%
02:00 +12°C° 0 mm 1 mps 747 mmHg 84%
03:00 +11°C° 0 mm 1 mps 747 mmHg 86%
04:00 +11°C° 0 mm 1 mps 747 mmHg 87%
05:00 +9°C° 0 mm 2 mps 747 mmHg 89%
06:00 +12°C° 0 mm 2 mps 747 mmHg 82%
07:00 +13°C° 0 mm 2 mps 747 mmHg 75%
08:00 +15°C° 0 mm 2 mps 748 mmHg 67%
09:00 +16°C° 0 mm 2 mps 748 mmHg 62%
10:00 +18°C° 0 mm 2 mps 748 mmHg 57%
11:00 +19°C° 0 mm 2 mps 748 mmHg 51%
12:00 +20°C° 0 mm 2 mps 748 mmHg 49%
13:00 +20°C° 0 mm 2 mps 748 mmHg 47%
14:00 +22°C° 0 mm 1 mps 747 mmHg 45%
15:00 +22°C° 0 mm 1 mps 747 mmHg 45%
16:00 +22°C° 0 mm 1 mps 747 mmHg 46%
17:00 +22°C° 0 mm 1 mps 747 mmHg 47%
18:00 +19°C° 0 mm 2 mps 747 mmHg 54%
19:00 +17°C° 0 mm 2 mps 747 mmHg 61%
20:00 +15°C° 0 mm 2 mps 747 mmHg 68%
21:00 +14°C° 0 mm 2 mps 747 mmHg 71%
22:00 +13°C° 0 mm 2 mps 748 mmHg 73%
23:00 +13°C° 0 mm 2 mps 748 mmHg 76%

Day after tomorrow, 15 August, Saturday

Time Temperature Precipitation Wind Pressure Humidity
00:00 +12°C° 0 mm 2 mps 748 mmHg 78%
01:00 +12°C° 0 mm 2 mps 748 mmHg 79%
02:00 +10°C° 0 mm 2 mps 748 mmHg 81%
03:00 +10°C° 0 mm 2 mps 748 mmHg 82%
04:00 +11°C° 0 mm 1 mps 748 mmHg 83%
05:00 +10°C° 0 mm 1 mps 748 mmHg 84%
06:00 +12°C° 0 mm 2 mps 748 mmHg 79%
07:00 +14°C° 0 mm 2 mps 748 mmHg 73%
08:00 +16°C° 0 mm 2 mps 748 mmHg 67%
09:00 +17°C° 0 mm 2 mps 748 mmHg 62%
10:00 +19°C° 0 mm 2 mps 748 mmHg 57%
11:00 +20°C° 0 mm 2 mps 748 mmHg 53%
12:00 +21°C° 0 mm 2 mps 748 mmHg 50%
13:00 +21°C° 0 mm 2 mps 748 mmHg 48%
14:00 +23°C° 0 mm 2 mps 748 mmHg 46%
15:00 +23°C° 0 mm 2 mps 748 mmHg 47%
16:00 +23°C° 0 mm 2 mps 747 mmHg 48%
17:00 +23°C° 0 mm 1 mps 747 mmHg 48%
18:00 +21°C° 0 mm 1 mps 747 mmHg 54%
19:00 +19°C° 0 mm 1 mps 747 mmHg 60%
20:00 +16°C° 0 mm 1 mps 747 mmHg 66%
21:00 +15°C° 0 mm 1 mps 747 mmHg 69%
22:00 +14°C° 0 mm 1 mps 747 mmHg 71%
23:00 +14°C° 0 mm 1 mps 747 mmHg 73%

16 August, Sunday

Time Temperature Precipitation Wind Pressure Humidity
00:00 +13°C° 0 mm 1 mps 747 mmHg 74%
01:00 +13°C° 0 mm 1 mps 747 mmHg 75%
02:00 +12°C° 0 mm 1 mps 747 mmHg 76%
03:00 +12°C° 0 mm 1 mps 747 mmHg 78%
04:00 +12°C° 0 mm 1 mps 747 mmHg 80%
05:00 +11°C° 0 mm 1 mps 747 mmHg 81%
06:00 +14°C° 0 mm 1 mps 747 mmHg 76%
07:00 +16°C° 0 mm 2 mps 747 mmHg 70%
08:00 +18°C° 0 mm 2 mps 748 mmHg 64%
09:00 +19°C° 0 mm 2 mps 748 mmHg 59%
10:00 +21°C° 0 mm 2 mps 748 mmHg 53%
11:00 +24°C° 0 mm 2 mps 748 mmHg 48%
12:00 +24°C° 0 mm 2 mps 748 mmHg 45%
13:00 +25°C° 0 mm 2 mps 748 mmHg 43%
14:00 +26°C° 0 mm 2 mps 748 mmHg 40%
15:00 +26°C° 0 mm 1 mps 747 mmHg 41%
16:00 +26°C° 0 mm 1 mps 747 mmHg 42%
17:00 +26°C° 0 mm 1 mps 747 mmHg 43%
18:00 +23°C° 0 mm 1 mps 747 mmHg 48%
19:00 +21°C° 0 mm 1 mps 747 mmHg 53%
20:00 +19°C° 0 mm 1 mps 747 mmHg 58%
21:00 +18°C° 0 mm 1 mps 747 mmHg 59%
22:00 +18°C° 0 mm 1 mps 747 mmHg 61%
23:00 +16°C° 0 mm 2 mps 747 mmHg 62%

17 August, Monday

Time Temperature Precipitation Wind Pressure Humidity
00:00 +16°C° 0 mm 2 mps 747 mmHg 64%
01:00 +15°C° 0 mm 2 mps 746 mmHg 66%
02:00 +15°C° 0 mm 2 mps 746 mmHg 67%
03:00 +15°C° 0 mm 2 mps 746 mmHg 68%
04:00 +14°C° 0 mm 2 mps 746 mmHg 68%
05:00 +14°C° 0 mm 2 mps 746 mmHg 68%
06:00 +16°C° 0 mm 3 mps 746 mmHg 65%
07:00 +18°C° 0 mm 3 mps 745 mmHg 62%
08:00 +20°C° 0 mm 3 mps 745 mmHg 59%
09:00 +22°C° 0 mm 3 mps 745 mmHg 56%
10:00 +25°C° 0 mm 4 mps 745 mmHg 53%
11:00 +27°C° 0 mm 4 mps 745 mmHg 50%
12:00 +27°C° 0 mm 4 mps 745 mmHg 48%
13:00 +27°C° 0 mm 5 mps 744 mmHg 47%
14:00 +28°C° 0 mm 5 mps 744 mmHg 46%
15:00 +26°C° 0.3 mm 4 mps 743 mmHg 54%
16:00 +24°C° 0.3 mm 3 mps 743 mmHg 62%
17:00 +21°C° 0.3 mm 2 mps 742 mmHg 71%
18:00 +20°C° 0.2 mm 3 mps 742 mmHg 71%
19:00 +20°C° 0.2 mm 3 mps 742 mmHg 71%
20:00 +20°C° 0.2 mm 3 mps 742 mmHg 71%
21:00 +19°C° 0.2 mm 3 mps 742 mmHg 77%
22:00 +19°C° 0.2 mm 3 mps 741 mmHg 83%
23:00 +19°C° 0.2 mm 3 mps 741 mmHg 89%

18 August, Tuesday

Time Temperature Precipitation Wind Pressure Humidity
00:00 +18°C° 0 mm 3 mps 741 mmHg 91%
01:00 +18°C° 0 mm 3 mps 741 mmHg 93%
02:00 +18°C° 0 mm 3 mps 741 mmHg 96%
03:00 +17°C° 0 mm 3 mps 740 mmHg 96%
04:00 +17°C° 0 mm 3 mps 740 mmHg 96%
05:00 +17°C° 0 mm 2 mps 740 mmHg 97%
06:00 +18°C° 0 mm 2 mps 740 mmHg 93%
07:00 +19°C° 0 mm 3 mps 740 mmHg 89%
08:00 +21°C° 0 mm 3 mps 740 mmHg 85%
09:00 +22°C° 0 mm 3 mps 740 mmHg 77%
10:00 +25°C° 0 mm 3 mps 740 mmHg 68%
11:00 +26°C° 0 mm 3 mps 740 mmHg 60%
12:00 +27°C° 0 mm 3 mps 740 mmHg 57%
13:00 +27°C° 0 mm 3 mps 740 mmHg 54%
14:00 +28°C° 0 mm 2 mps 740 mmHg 51%
15:00 +28°C° 0 mm 2 mps 739 mmHg 53%
16:00 +27°C° 0 mm 1 mps 739 mmHg 55%
17:00 +27°C° 0 mm 1 mps 739 mmHg 56%
18:00 +25°C° 0 mm 1 mps 739 mmHg 63%
19:00 +23°C° 0 mm 2 mps 739 mmHg 70%
20:00 +20°C° 0 mm 2 mps 739 mmHg 78%
21:00 +19°C° 0 mm 2 mps 739 mmHg 82%
22:00 +18°C° 0 mm 2 mps 739 mmHg 86%
23:00 +17°C° 0 mm 2 mps 739 mmHg 91%
Show more